Regional Weather Roundup
Issued by NWS Sioux Falls, SD

Home | Current Version | Previous Version | Graphics & Text | Print | Product List | Glossary Off
Versions: 1 2 3 4 5 6 7 8 9 10 11 12 13 14 15 16 17 18 19 20 21 22 23 24 25 26 27 28 29 30 31 32 33 34 35 36 37 38 39 40 41 42 43 44 45 46 47 48 49 50

000
ASUS43 KFSD 260110
RWRFSD

WEATHER ROUNDUP FOR SE SOUTH DAKOTA/SW MINNESOTA/NW IOWA
NATIONAL WEATHER SERVICE SIOUX FALLS SD
700 PM CST THU DEC 25 2014

NOTE: "FAIR" INDICATES FEW OR NO CLOUDS BELOW 12,000 FEET WITH NO
SIGNIFICANT WEATHER AND OR OBSTRUCTIONS TO VISIBILITY.


SDZ038>040-050-052>070-260200-
SOUTHEAST SOUTH DAKOTA

CITY           SKY/WX    TMP DP  RH WIND       PRES   REMARKS
CHAMBERLAIN    LGT SNOW  27  25  93 N15       29.88R WCI  15
HURON          LGT SNOW  26  23  88 N16       29.87R FOG     WCI  14
MADISON        CLOUDY    27  27 100 NE12      29.80R WCI  16
MITCHELL       LGT SNOW  28  25  88 N18       29.85R FOG     WCI  15
SIOUX FALLS    FRZ DRZL  32  30  92 NE12      29.78R FOG     WCI  23
WINNER         LGT SNOW  27  25  92 N16       29.87R FOG     WCI  15
YANKTON        CLOUDY    34  28  80 N16       29.77R WCI  23
$$

MNZ071-072-080-081-089-090-097-098-260200-
SOUTHWEST MINNESOTA

CITY           SKY/WX    TMP DP  RH WIND       PRES   REMARKS
FAIRMONT       MOCLDY    34  28  80 NE7       29.78R WCI  28
JACKSON        CLOUDY    32  32 100 NE10      29.77R WCI  24
LUVERNE        CLOUDY    32  30  93 NE14      29.78R WCI  22
MARSHALL       CLOUDY    30  25  80 N13       29.82R WCI  20
MONTEVIDEO     LGT SNOW  30  30 100 NE13      29.85R WCI  20
PIPESTONE      CLOUDY    28  28 100 NE10G17   29.78R FOG     WCI  19
REDWOOD FALLS  CLOUDY    33  30  88 N5        29.82R WCI  29
TRACY          CLOUDY    32  31  96 NE10      29.81R FOG     WCI  24
WINDOM         CLOUDY    32  30  93 N8        29.78S WCI  25
WORTHINGTON    CLOUDY    30 -17  12 NE14      29.77R WCI  20
$$

IAZ001>003-012>014-020>022-031-032-NEZ013-014-SDZ071-260200-
NORTHWEST IOWA

CITY           SKY/WX    TMP DP  RH WIND       PRES   REMARKS
CHEROKEE       CLEAR     31  31 100 N7        29.72R WCI  24
DENISON        CLEAR     36  34  93 E6        29.67S
ESTHERVILLE    MOCLDY    31  30  96 NE7       29.76  WCI  24
LE MARS        PTCLDY    32  30  93 NE8       29.73R WCI  25
ORANGE CITY    PTCLDY    34  30  86 NE8       29.73R WCI  27
SHELDON        MOCLDY    32  32 100 NE10      29.74R WCI  24
SIOUX CITY     CLEAR     33  30  88 N9        29.70R WCI  25
SPENCER        MOCLDY    33  29  85 NE10      29.75R WCI  25
STORM LAKE     CLOUDY    32  30  93 NE6       29.72R WCI  26
$$

ABBREVIATIONS USED IN REMARKS
   TC - TEMPERATURE IN CELSIUS
  WCI - WIND CHILL INDEX
   HX - HEAT INDEX
  VSB - VISIBILITY



USA.gov is the U.S. government's official web portal to all federal, state and local government web resources and services.